Погода в Октябрьском

Россия / Удмуртская Республика     56°33′49″N   53°58′21″E
темп.,
°C
ветер,
м/с
пор.,
м/с
влажн.,
%
обл.,
%
осадки,
мм/ч
давл.,
гПа
погр.,
м
17 апреля, сб
сб1701:00+3св310675 0.0 1027258
04:00+2ссв39735 0.0 1027221
07:00+3ссв310625 0.0 1028310
10:00+8ссв57375 0.0 1027774
13:00+11св45355 0.0 10261204
16:00+12ссв44355 0.0 10251448
19:00+8с24530 0.0 102589
22:00+5с22670 0.0 102427
18 апреля, вс
вс1801:00+4ссз22750 0.0 102416
04:00+2ссз228134 0.0 102423
07:00+4ссз26755 0.0 1023183
10:00+8ссв565819 0.0 10231066
13:00+6ссв575788 0.0 10251213
16:00+7св67305 0.0 10261646
19:00+6всв494381 0.0 1027652
22:00+2всв512476 0.0 1030682
19 апреля, пн
пн1901:000всв4125219 0.0 1032597
04:00−1всв4115314 0.0 1033472
07:000всв49445 0.0 1034940
10:00+3в68260 0.0 10351456
13:00+6в57240 0.0 10341752
16:00+6в56250 0.0 10341782
19:00+4всв37370 0.0 1035230
22:000всв27520 0.0 1036139
20 апреля, вт
вт2001:00−1в24550 0.0 103782
04:00−1в22530 0.0 103844
07:00+1вюв23420 0.0 1038178
10:00+6юв23270 0.0 10381143
13:00+9ююв22250 0.0 10371428
16:00+10ююв11250 0.0 10361395
19:00+6юв22390 0.0 103521
22:00+3ююв22490 0.0 103517
21 апреля, ср
ср2101:00+2ююв12530 0.0 103510
04:000юв225658 0.0 103514
07:00+3юв26500 0.0 1035180
10:00+9ююв4734100 0.0 1034888
13:00+12ююв572674 0.0 10331199
16:00+13ю5826100 0.0 10321498
19:00+10ююв3939100 0.0 1031233
22:00+6ююв3956100 0.0 1032177